Погода в Винниках

Украина / Львовская область     49˚24′21″N   23˚16′55″E
темп.,
°C
ветер,
м/с
пор.,
м/с
влажн.,
%
обл.,
%
осадки,
мм/ч
давл.,
гПа
погр.,
м
5 декабря, сб
сб523:00+2˚юв348285 0.0 101364
02:00+2˚юв348472 0.0 101367
05:00+2˚вюв348728 0.0 101373
08:00+1˚вюв458845 0.0 101486
11:00+4˚вюв46890 0.0 1015124
14:00+6˚вюв47872 0.0 1015138
17:00+4˚юв46900 0.0 1016106
20:00+3˚юв45900 0.0 101793
6 декабря, вс
вс623:00+2˚вюв48920 0.0 1018127
02:00+2˚юв48930 0.0 1019153
05:00+2˚юв59940 0.0 1018178
08:00+2˚юв510941 0.0 1019213
11:00+5˚юв713917 0.0 1018405
14:00+6˚вюв8138510 0.0 1017561
17:00+3˚вюв7158831 0.0 1017455
20:00+3˚вюв8158730 0.0 1017488
7 декабря, пн
пн723:00+2˚вюв8158738 0.0 1017477
02:00+1˚вюв8158645 0.0 1017468
05:00вюв9158580 0.0 1016467
08:00−1˚вюв9158280 0.0 1015488
11:00−1˚вюв10167345 0.0 1015561
14:00+1˚вюв10166426 0.0 1014611
17:00−2˚вюв10167213 0.0 1014580
20:00−4˚вюв9157917 0.0 1014545
8 декабря, вт
вт823:00−3˚юв7137773 0.0 1014504
02:00−2˚юв6127977 0.0 1014430
05:00−2˚вюв61090100 0.2 1014372
08:00−1˚юв5108599 0.3 1013377
11:00+1˚вюв6981100 0.1 1014383
14:00+2˚вюв577999 0.1 1014378
17:00+1˚вюв5885100 0.0 1015257
20:00−1˚вюв469461 0.0 1015167
9 декабря, ср
ср923:00−1˚вюв489512 0.0 1015222
02:00−1˚вюв5109549 0.0 1015257
05:00вюв5119371 0.0 1014389
08:00+1˚вюв7138984 0.0 1014546
11:00+3˚вюв7138485 0.0 1014616
14:00+4˚вюв7118379 0.0 1013591
17:00+1˚вюв499299 0.0 1012223
20:00юв349599 0.0 101298